Regional Weather Roundup
Issued by NWS Sterling, VA

Home | Current Version | Previous Version | Text Only | Print | Product List | Glossary On
Versions: 1 2 3 4 5 6 7 8 9 10 11 12 13 14 15 16 17 18 19 20 21 22 23 24 25 26 27 28 29 30 31 32 33 34 35 36 37 38 39 40 41 42 43 44 45 46 47 48 49 50
000
ASUS41 KLWX 312310
RWRLWX

REGIONAL WEATHER ROUNDUP
NATIONAL WEATHER SERVICE BALTIMORE MD/WASHINGTON DC
700 PM EDT TUE MAR 31 2015

Note: "FAIR" indicates few or no clouds below 12,000 feet
with no significant weather and/or obstructions to visibility.
 TC=TEMPERATURE CELSIUS

 * =Non NWS site. Station does not report precipitation (e.g. rain,
    snow, etc.), thunder, or fog.

DCZ001-MDZ009-015-VAZ040>042-051-053>054-010000-
WASHINGTON METRO

CITY           SKY/WX    TMP DP  RH WIND       PRES   REMARKS
WASHINGTON NAT CLOUDY    66  39  37 NW14G21   29.64R
DULLES         CLOUDY    58  37  45 N24G36    29.68R
ANDREWS AFB    CLOUDY    59  45  58 W5        29.61F THUNDER
FT BELVOIR     CLOUDY    63  41  45 W14       29.63R
QUANTICO       CLOUDY    67  36  31 NW9G30    29.63R
COLLEGE PARK*  CLOUDY    61  41  48 N22G35    29.65R
LEESBURG*      TSTM      54  45  71 N16G25    29.70R
MANASSAS*      CLOUDY    63  39  42 W13G21      N/A
GAITHERSBURG*  CLOUDY    52  39  62 NW9G17    29.73R

$$

MDZ006>007-011-014-010000-
BALTIMORE METRO

CITY           SKY/WX    TMP DP  RH WIND       PRES   REMARKS
BWI AIRPORT    CLOUDY    58  42  55 NW20G28   29.64R
MD SCIENCE CTR   N/A     60  41  49 MISG      29.66
MARTIN STATE   MOCLDY    57  45  62 NW21      29.66R
ANNAPOLIS      LGT RAIN  56  45  66 S12       29.60F

$$

MDZ012-015-019>023-010000-
MARYLAND EASTERN SHORE

CITY           SKY/WX    TMP DP  RH WIND       PRES   REMARKS
OCEAN CITY     PTCLDY    52  37  56 W9G20     29.66R
SALISBURY      LGT RAIN  61  37  41 SW9       29.65R
BAY BRIDGE AP* TSTM      55  45  67 S8        29.63F
CAMBRIDGE*     CLOUDY    59  41  51 N7        29.66R
EASTON*        RAIN      55  48  76 CALM      29.71R

$$

MDZ017>025-010000-
SOUTHERN MARYLAND

CITY           SKY/WX    TMP DP  RH WIND       PRES   REMARKS
PATUXENT RIVER LGT RAIN  63  38  39 NW21G26   29.61R
ST INIGOES     CLOUDY    67  33  28 W15G26    29.60R
LEONARDTOWN*   CLOUDY    63  37  39 NW13G39   29.63R

$$

MDZ003>005-010000-
NORTH CENTRAL MARYLAND

CITY           SKY/WX    TMP DP  RH WIND       PRES   REMARKS
FREDERICK*     LGT RAIN  54  41  62 CALM      29.72R
HAGERSTOWN APT MOCLDY    48  40  73 N10       29.71R
WESTMINSTER*   CLOUDY    46  43  87 N8G16     29.69R

$$

MDZ501>502-010000-
WESTERN MARYLAND

CITY           SKY/WX    TMP DP  RH WIND       PRES   REMARKS
OAKLAND*       CLOUDY    43  41  93 NW12G22   29.72R
CUMBERLAND*    CLOUDY    54  37  54 N15G23    29.76R

$$

VAZ025>031-010000-
SHENANDOAH VALLEY

CITY           SKY/WX    TMP DP  RH WIND       PRES   REMARKS
WINCHESTER*    CLOUDY    57  32  38 NW12G21   29.69R
FRONT ROYAL*   MOCLDY    55  41  58 N10G32    29.68R
LURAY*         FAIR      63  41  45 SW5       29.64S
NEW MARKET*    FAIR      57  45  63 CALM      29.64S
STAUNTON*      CLOUDY    64  35  34 NW5       29.67R
WAYNESBORO*    MOCLDY    65  35  32 NW17G33   29.65R

$$

WVZ021-048>050-054>055-010000-
EASTERN WEST VIRGINIA PANHANDLE

CITY           SKY/WX    TMP DP  RH WIND       PRES   REMARKS
MARTINSBURG    CLOUDY    54  42  64 N9        29.70R
PETERSBURG*    CLOUDY    58  31  35 NW14G32   29.70R

$$

VAZ036>039-050-010000-
CENTRAL FOOTHILLS

CITY           SKY/WX    TMP DP  RH WIND       PRES   REMARKS
CHARLOTTESVILL LGT RAIN  67  36  31 N17G25    29.63R
CULPEPER*      CLOUDY    66  37  34 W13G22    29.63S THUNDER
ORANGE*        CLOUDY    64  39  39 NW8G26    29.65R
GORDONSVILLE*  CLOUDY    66  37  34 N9G20     29.63R
WARRENTON*     FAIR      66  46  48 W8G17     29.62S THUNDER

$$

VAZ055>057-010000-
NORTH AND CENTRAL PIEDMONT

CITY           SKY/WX    TMP DP  RH WIND       PRES   REMARKS
FREDERICKSBRG* LGT RAIN  68  38  32 NW13G25   29.62R
STAFFORD*      TSTM      65  32  29 NW14G22   29.67R

$$

NCZ024-NYZ072-PAZ021-071-VAZ022-071-010000-
OTHER REGIONAL OBSERVATIONS

CITY           SKY/WX    TMP DP  RH WIND       PRES   REMARKS
NEW YORK CITY  LGT RAIN  37  32  82 NE6       29.79R
PHILADELPHIA   CLOUDY    45  33  63 NE15      29.70R
PITTSBURGH     MOCLDY    44  31  60 N16       29.85R
ROANOKE        PTCLDY    72  31  22 W24G33    29.68R
RICHMOND       MOCLDY    73  29  19 SW22G35   29.60R
RALEIGH        PTCLDY    71  34  25 SW18G24   29.74F

$$

ANZ530>537-010000-
MARINE OBSERVATIONS

STATION/POSITION TIME  TEMP    WIND        PRES
                       AIR SEA DIR/SP/G
                 (UTC) (F)     (DEG/KT/KT) (MB)
THOMAS PT LIGHT  2300                        N/A
BALT KEY BRIDGE  2200   58     190/  9/ 12 1002.4F
COVE POINT       2200   68     270/  9/ 13 1001.3R
LEWISETTA        2200   69 48              1000.4F
SOLOMONS ISLAND  2200      46                N/A
PINEY POINT      2200          250/ 11/ 14   N/A

$$



USA.gov is the U.S. government's official web portal to all federal, state and local government web resources and services.